TimeEST,TemperatureF,Dew PointF,Humidity,Sea Level PressureIn,VisibilityMPH,Wind Direction,Wind SpeedMPH,Gust SpeedMPH,PrecipitationIn,Events,Conditions,WindDirDegrees,DateUTC
12:54 AM,36.0,27.0,70,29.88,10.0,SSW,5.8,-,N/A,,Overcast,210,2012-12-07 05:54:00
1:09 AM,35.6,28.4,75,29.86,10.0,SW,6.9,-,N/A,,Overcast,220,2012-12-07 06:09:00
1:54 AM,36.0,28.0,73,29.88,10.0,SSW,5.8,-,N/A,,Overcast,200,2012-12-07 06:54:00
2:54 AM,36.0,28.9,76,29.88,10.0,South,5.8,-,N/A,,Overcast,190,2012-12-07 07:54:00
3:54 AM,36.0,28.9,76,29.89,10.0,SSW,5.8,-,N/A,,Scattered Clouds,210,2012-12-07 08:54:00
4:54 AM,36.0,30.0,79,29.89,10.0,SW,3.5,-,N/A,,Overcast,220,2012-12-07 09:54:00
5:54 AM,36.0,30.9,82,29.90,10.0,Calm,Calm,-,N/A,,Overcast,0,2012-12-07 10:54:00
6:11 AM,35.6,30.2,81,29.87,10.0,Calm,Calm,-,N/A,,Overcast,0,2012-12-07 11:11:00
6:47 AM,35.6,30.2,81,29.89,10.0,Calm,Calm,-,N/A,,Scattered Clouds,0,2012-12-07 11:47:00
6:54 AM,35.1,30.0,82,29.91,10.0,Calm,Calm,-,N/A,,Partly Cloudy,0,2012-12-07 11:54:00
7:54 AM,35.1,30.9,85,29.92,9.0,Calm,Calm,-,N/A,,Clear,0,2012-12-07 12:54:00
8:00 AM,35.6,30.2,81,29.90,9.0,Calm,Calm,-,N/A,,Overcast,0,2012-12-07 13:00:00
8:54 AM,36.0,30.9,82,29.94,9.0,West,3.5,-,N/A,,Overcast,270,2012-12-07 13:54:00
9:40 AM,37.4,32.0,81,29.94,10.0,NNW,4.6,-,N/A,,Overcast,330,2012-12-07 14:40:00
9:54 AM,37.9,33.1,83,29.96,10.0,NNW,6.9,-,N/A,,Overcast,330,2012-12-07 14:54:00
10:38 AM,37.4,28.4,70,29.94,10.0,NNW,8.1,-,N/A,,Overcast,340,2012-12-07 15:38:00
10:54 AM,37.9,28.9,70,29.97,10.0,North,8.1,-,N/A,,Overcast,350,2012-12-07 15:54:00
11:54 AM,39.0,28.0,65,29.96,10.0,NNW,8.1,-,N/A,,Scattered Clouds,330,2012-12-07 16:54:00
12:05 PM,39.2,28.4,65,29.94,10.0,NNW,5.8,-,N/A,,Mostly Cloudy,330,2012-12-07 17:05:00
12:54 PM,39.0,28.0,65,29.97,10.0,NNW,9.2,-,N/A,,Overcast,330,2012-12-07 17:54:00
1:54 PM,39.0,28.0,65,29.96,10.0,North,8.1,-,N/A,,Overcast,350,2012-12-07 18:54:00
2:54 PM,37.9,28.0,68,29.97,10.0,NNW,5.8,-,N/A,,Overcast,340,2012-12-07 19:54:00
3:01 PM,39.2,28.4,65,29.95,10.0,North,8.1,-,N/A,,Overcast,350,2012-12-07 20:01:00
3:54 PM,37.0,28.0,70,29.98,10.0,North,6.9,-,N/A,,Overcast,10,2012-12-07 20:54:00
4:54 PM,36.0,27.0,70,30.00,10.0,NNW,4.6,-,N/A,,Overcast,330,2012-12-07 21:54:00
5:54 PM,35.1,25.0,67,30.00,10.0,NNW,6.9,-,N/A,,Overcast,340,2012-12-07 22:54:00
6:54 PM,32.0,25.0,75,30.00,10.0,North,5.8,-,N/A,,Clear,350,2012-12-07 23:54:00
7:54 PM,30.9,25.0,79,30.01,10.0,Calm,Calm,-,N/A,,Clear,0,2012-12-08 00:54:00
8:30 PM,32.0,24.8,75,29.99,10.0,Calm,Calm,-,N/A,,Mostly Cloudy,0,2012-12-08 01:30:00
8:54 PM,33.1,25.0,72,30.01,10.0,NNW,6.9,-,N/A,,Mostly Cloudy,330,2012-12-08 01:54:00
9:54 PM,33.1,25.0,72,30.00,10.0,NNW,5.8,-,N/A,,Mostly Cloudy,340,2012-12-08 02:54:00
10:06 PM,33.8,24.8,70,29.98,10.0,North,6.9,-,N/A,,Partly Cloudy,350,2012-12-08 03:06:00
10:54 PM,32.0,25.0,75,29.99,10.0,North,5.8,-,N/A,,Overcast,350,2012-12-08 03:54:00
11:54 PM,33.1,26.1,75,30.01,10.0,North,5.8,-,N/A,,Overcast,360,2012-12-08 04:54:00